Location: Valencia
(39.4696°N, 0.3770°W)
Time: 13:34:47
(UTC+01:00)

ISS - Visible Passes

Search period start: 05 December 2016 00:00
Search period end: 15 December 2016 00:00
Orbit: 401 x 410 km, 51.6° (Epoch: 05 December)

Date Brightness Start Highest point End Pass type
(mag) Time Alt. Az. Time Alt. Az. Time Alt. Az.
05 Dec -1.2 19:00:26 10° WNW 19:02:54 19° NNW 19:04:10 16° N visible
06 Dec -1.7 18:07:51 10° W 18:10:44 27° NNW 18:13:38 10° NNE visible
07 Dec -0.9 18:54:08 10° NW 18:55:48 13° NNW 18:57:03 11° N visible
09 Dec -0.7 18:47:59 10° NNW 18:48:45 11° N 18:49:30 10° N visible
11 Dec -0.8 18:41:15 10° N 18:41:41 10° N 18:42:08 10° N visible
12 Dec -0.7 19:24:57 10° NNW 19:25:23 12° NNW 19:25:23 12° NNW visible
13 Dec -1.0 18:33:13 10° NNW 18:34:33 12° N 18:35:32 11° NNE visible
14 Dec -1.3 19:16:54 10° NNW 19:18:28 19° N 19:18:28 19° N visible
